Regional Weather Roundup
Issued by NWS

Home | Current Version | Previous Version | Graphics & Text | Print | Product List | Glossary Off
Versions: 1 2 3 4 5 6 7 8 9 10 11 12 13 14 15 16 17 18 19 20 21 22 23 24 25 26 27 28 29 30 31 32 33 34 35 36 37 38 39 40 41 42 43 44 45 46 47 48 49 50

000
ASUS43 KMKX 300500
RWRWI

WISCONSIN REGIONAL WEATHER ROUNDUP
NATIONAL WEATHER SERVICE MILWAUKEE/SULLIVAN WI
1200 AM CDT MON MAY 30 2016

NOTE: "FAIR" INDICATES FEW OR NO CLOUDS BELOW 12,000 FEET WITH NO
SIGNIFICANT WEATHER AND/OR OBSTRUCTIONS TO VISIBILITY.

WIZ001-002-006>008-014>016-023>028-300600-
NORTHWEST WISCONSIN

CITY           SKY/WX    TMP DP  RH WIND       PRES   REMARKS
SUPERIOR ARPT  CLEAR     55  53  90 SW6       29.93S
ASHLAND        PTCLDY    54  51  90 SW6       29.93S
HAYWARD        MOCLDY    54  51  90 CALM      29.97R
SIREN          PTCLDY    58  55  89 CALM      29.98R
CUMBERLAND     MOCLDY    55  55 100 W5        29.98R
RICE LAKE      PTCLDY    60  57  92 CALM      29.99R
CHETEK         MOCLDY    58  58 100 SW3       29.97S
LADYSMITH      CLEAR     57  55  92 CALM      29.99R
EAU CLAIRE     PTCLDY    61  56  83 CALM      29.97R
MENOMONIE      CLEAR     61  55  80 SW6       29.98R
NEW RICHMOND   CLEAR     60  55  84 SW5       29.99R
OSCEOLA        CLEAR     59  59 100 CALM      30.01R
$$

WIZ003>005-009-010-017-018-300600-
NORTH CENTRAL WISCONSIN

CITY           SKY/WX    TMP DP  RH WIND       PRES   REMARKS
MANITOWISH WTR NOT AVBL
ARBOR VITAE    CLEAR     57  55  93 CALM      29.96R
WOODRUFF       CLEAR     57  55  93 CALM      29.96R
RHINELANDER    CLEAR     53  52  96 W5        29.97R FOG
EAGLE RIVER      N/A     52  52 100 CALM      29.94S FOG
LAND O LAKES   CLEAR     53  52  99 CALM      29.95R
PHILLIPS       CLEAR     53  53 100 CALM      29.96S
TOMAHAWK       PTCLDY    52  51  96 CALM      29.97R
MEDFORD        CLOUDY    61  57  86 W3        29.98R
MERRILL        PTCLDY    57  57 100 CALM      29.97R
$$

WIZ029-030-035-036-043>047-300600-
CENTRAL WISCONSIN

CITY           SKY/WX    TMP DP  RH WIND       PRES   REMARKS
WAUSAU         MOCLDY    60  56  86 CALM      29.96R
MOSINEE        CLEAR     57  55  94 SW3       29.98R
MARSHFIELD     MOCLDY    62  55  77 CALM      29.97S
STEVENS POINT  CLEAR     59  56  88 W3        29.98R
WAUPACA        CLEAR     60  59  94 CALM      29.97R
WAUTOMA        CLEAR     58  56  93 CALM      29.99R
WISC RAPIDS    CLEAR     59  55  87 W6        29.99R
CAMP DOUGLAS   NOT AVBL
$$

WIZ011>013-019>022-031-037>040-048>050-300600-
NORTHEAST WISCONSIN

CITY           SKY/WX    TMP DP  RH WIND       PRES   REMARKS
ANTIGO         MOCLDY    57  55  93 CALM      29.97R
SHAWANO        PTCLDY    64  57  78 CALM      29.95R
OCONTO         CLEAR    N/A N/A N/A CALM      29.93R
STURGEON BAY   NOT AVBL
GREEN BAY      CLEAR     66  57  72 W6        29.95R
MANITOWOC      NOT AVBL
APPLETON       CLEAR     61  54  77 W6        29.96R
CLINTONVILLE   CLEAR     63  54  72 W3        29.95R
OSHKOSH        CLEAR     65  57  75 W5        29.97R
$$

WIZ032>034-041-042-053>061-300600-
SOUTHWEST WISCONSIN

CITY           SKY/WX    TMP DP  RH WIND       PRES   REMARKS
LA CROSSE      PTCLDY    65  60  84 S7        29.98S
SPARTA         CLOUDY    58  56  93 CALM      30.00S
VIROQUA        PTCLDY    63  58  81 SW3       30.02S
BOSCOBEL       CLEAR     60  59  96 CALM      30.00S FOG
PRAIRIE DU CHI CLEAR     62  58  87 CALM      30.00S
PLATTEVILLE    PTCLDY    67  60  79 W3        30.01F
$$

WIZ056-057-062-063-064-067-068-300600-
SOUTH CENTRAL WISCONSIN

CITY           SKY/WX    TMP DP  RH WIND       PRES   REMARKS
REEDSBURG      CLEAR     62  60  94 CALM      29.99S
BARABOO/DELLS  CLEAR     63  58  85 SW6       29.99S
LONE ROCK      NOT AVBL
MINERAL POINT  CLEAR     64  59  82 CALM      30.02S
MADISON        PTCLDY    63  60  90 CALM      29.99S
MIDDLETON      PTCLDY    64  61  90 CALM      30.01S
WATERTOWN      CLOUDY    67  59  76 CALM      29.98S
MONROE         CLEAR     64  57  77 W9        30.01S
JANESVILLE     CLEAR     64  59  82 SW3       30.00R
$$

WIZ051-052-058>065-066-070>072-300600-
SOUTHEAST WISCONSIN

CITY           SKY/WX    TMP DP  RH WIND       PRES   REMARKS
MILWAUKEE      PTCLDY    69  58  67 W6        29.98R
WAUKESHA       CLOUDY    64  55  72 SW6       30.00R
MILWAUKEE/TIMM CLOUDY    64  54  68 CALM      29.99R
RACINE         CLEAR     67  57  70 W5        30.00R
BURLINGTON     CLEAR     60  58  94 S6        29.99S
KENOSHA        CLEAR     62  57  83 W6        29.99S
FOND DU LAC    PTCLDY    64  58  80 W5        29.98R
SHEBOYGAN      CLEAR     63  57  81 W5        29.96R
WEST BEND      CLOUDY    64  55  72 CALM      29.97S
JUNEAU         PTCLDY    64  58  82 SW6       30.00R
$$

LSZ147-162-300600-
LAKE SUPERIOR

STATION/POSITION TIME  TEMP    WIND        PRES    WAVE
                       AIR SEA DIR/SP/G            HT/PER
                 (UTC) (F)     (DEG/KT/KT) (MB)    (FT/S)
W MID LAKE BUOY  0350   44 38  240/  8/  8 1012.3R   1/ 4
DEVILS ISLAND    0400   54     220/ 11/ 12 1012.5F
SAXON HARBOR     0440   55     200/  7/  8 1012.5S
$$

LMZ867-665-643>646-300600-
LAKE MICHIGAN

STATION/POSITION TIME  TEMP    WIND        PRES    WAVE
                       AIR SEA DIR/SP/G            HT/PER
                 (UTC) (F)     (DEG/KT/KT) (MB)    (FT/S)
CHAMBERS ISLAND  0440   63     240/  3/  5 1013.2R
N MID LAKE BUOY  0350   55 47  250/ 10/ 10 1012.1R   2/ 5
NORTHPORT PIER   0400   63     270/  4/  7 1012.9R
KEWAUNEE LAKESHO 0400   67     300/  3/  5 1013.0
SHEBOYGAN LAKESH 0400   69     250/  6/  7 1014.3R
PORT WASHINGTON  0400   69     260/  5/  7 1014.9
S MID LAKE BUOY  0350   57 51  230/  6/  8 1014.6R   1
KENOSHA   LAKESH 0400   72     260/  6/  8 1015.2R
$$

TC  - TEMPERATURE IN CELSIUS
VSB - VISIBILITY IN STATUTE MILES
WCI - WIND CHILL INDEX
HX  - HEAT INDEX




USA.gov is the U.S. government's official web portal to all federal, state and local government web resources and services.